Meteo Giornale » Osservazioni meteo Stati Uniti (USA) » East Hampton

ore: 21:35 - Osservazioni Meteo East Hampton
Lat. 40° 57' N Lon. 72° 15' W Alt. 17 metri s.l.m.

sereno America/New_York

13 °C

Sereno

Temp. 24 Ore

13 °C

23 °C

Nord

0 Km/h

Dew point 13 °C

Umidità 100 %

Visibilità  10 Km

Il sole sorge alle ore 06:32

Il sole tramonta alle ore 18:52

Data e Ora Cielo e Fenomeni T °C DP °C Um. % Pres. hPa Vis. km Vento km/h
Oggi h: 21:35 sereno Sereno 13 13 100 1023 10 N 0
Oggi h: 21:15 sereno Sereno 13 13 100 1023 10 N 0
Oggi h: 20:55 sereno Sereno 13 13 100 1023 10 N 0
Oggi h: 20:35 sereno Sereno 14 14 100 1023 10 N 0
Oggi h: 20:15 sereno Sereno 14 14 100 1022 10 N 0
Oggi h: 19:55 sereno Sereno 15 14 93 1022 10 N 0
Oggi h: 19:35 sereno Sereno 15 14 93 1022 10 N 0
Oggi h: 19:15 sereno Sereno 16 14 87 1021 10 N 0
Oggi h: 18:55 sereno Sereno 18 14 77 1021 10 N 0
Oggi h: 18:35 sereno Sereno 19 14 72 1021 10 N 0
Oggi h: 18:15 sereno Sereno 20 14 68 1021 10 N 5.5
Oggi h: 17:55 sereno Sereno 20 13 64 1021 10 N 5.5
Oggi h: 17:35 sereno Sereno 20 13 64 1021 10 S 9.3
Oggi h: 17:15 sereno Sereno 21 13 60 1020 10 S/SE 9.3
Oggi h: 16:55 nuvoloso Nuvoloso 21 14 64 1020 10 S/SE 9.3
Oggi h: 16:35 coperto Coperto 21 14 64 1020 10 S 7.4
Oggi h: 15:35 nuvoloso Nuvoloso 21 13 60 1020 10 N 0
Oggi h: 15:15 molto_nuvoloso Molto Nuvoloso 22 12 53 1021 10 E 7.4
Oggi h: 14:35 molto_nuvoloso Molto Nuvoloso 21 13 60 1021 10 N/NE 7.4
Oggi h: 14:15 molto_nuvoloso Molto Nuvoloso 22 13 56 1021 10 N 5.5
Oggi h: 13:55 nuvoloso Nuvoloso 23 13 53 1021 10 NE 9.3
Oggi h: 13:15 sereno Sereno 22 13 56 1021 10 N 9.3
Oggi h: 12:55 sereno Sereno 22 12 53 1021 10 N 13
Oggi h: 12:35 sereno Sereno 22 13 56 1021 10 N/NE 11.1
Oggi h: 12:15 sereno Sereno 22 13 56 1021 10 N 14.8
Oggi h: 11:55 sereno Sereno 22 13 56 1020 10 N/NE 11.1
Oggi h: 11:35 sereno Sereno 21 13 60 1020 10 NE 11.1
Oggi h: 11:15 sereno Sereno 21 14 64 1020 10 NE 13
Oggi h: 10:55 sereno Sereno 20 14 68 1020 10 N/NE 14.8
Oggi h: 10:35 sereno Sereno 20 14 68 1020 10 NE 11.1
Oggi h: 10:15 sereno Sereno 20 13 64 1020 10 N 14.8
Oggi h: 09:55 nuvoloso Nuvoloso 19 14 72 1020 10 N 16.7
Oggi h: 09:35 molto_nuvoloso Molto Nuvoloso 20 14 68 1020 10 N 18.5
Oggi h: 09:10 nuvoloso Nuvoloso 19 14 72 1020 10 N 14.8
Oggi h: 08:35 molto_nuvoloso Molto Nuvoloso 18 14 77 1019 10 N 16.7
Oggi h: 08:15 molto_nuvoloso Molto Nuvoloso 18 13 72 1019 10 N 16.7
Oggi h: 07:55 nuvoloso Nuvoloso 18 14 77 1019 10 N 13
Oggi h: 07:35 molto_nuvoloso Molto Nuvoloso 18 13 72 1019 10 N 20.3
Oggi h: 07:15 molto_nuvoloso Molto Nuvoloso 18 13 72 1018 10 N 20.3
Oggi h: 06:55 coperto Coperto 18 14 77 1018 10 N 18.5
Oggi h: 06:35 molto_nuvoloso Molto Nuvoloso 19 15 77 1018 10 N 18.5
Oggi h: 06:15 coperto Coperto 19 15 77 1017 10 N 18.5
Oggi h: 05:55 molto_nuvoloso Molto Nuvoloso 19 15 77 1017 10 N 18.5
Oggi h: 05:35 molto_nuvoloso Molto Nuvoloso 19 16 82 1017 10 N 20.3
Oggi h: 05:15 nuvoloso Nuvoloso 19 17 88 1017 10 N/NO 13
Oggi h: 04:55 sereno Sereno 20 18 88 1017 10 N/NO 11.1
Oggi h: 04:35 sereno Sereno 20 18 88 1016 10 N/NO 14.8
Oggi h: 04:15 sereno Sereno 20 18 88 1016 10 N/NO 14.8
Oggi h: 03:55 sereno Sereno 20 19 93 1016 10 N 16.7
Oggi h: 03:35 sereno Sereno 20 19 93 1016 10 N/NO 13
Oggi h: 03:15 sereno Sereno 20 19 93 1016 10 N/NO 14.8
Oggi h: 02:55 sereno Sereno 20 19 93 1016 10 N 18.5
Oggi h: 02:35 sereno Sereno 20 19 93 1016 10 N/NO 13
Oggi h: 02:15 sereno Sereno 20 19 93 1016 10 N 13
Oggi h: 01:55 sereno Sereno 20 19 93 1016 10 N/NO 7.4
Oggi h: 01:35 sereno Sereno 20 19 93 1016 10 NO 7.4
Oggi h: 01:15 sereno Sereno 20 20 100 1016 10 N/NO 7.4
Oggi h: 00:55 sereno Sereno 20 20 100 1016 10 O/NO 7.4
Oggi h: 00:35 sereno Sereno 19 19 100 1016 10 N 5.5
Oggi h: 00:15 sereno Sereno 17 17 100 1016 10 N 0
Ieri h: 23:55 sereno Sereno 17 17 100 1016 10 N 0
Ieri h: 23:35 sereno Sereno 17 17 100 1016 10 N 0
Ieri h: 23:15 sereno Sereno 17 17 100 1016 10 N 0
Ieri h: 22:55 sereno Sereno 18 18 100 1016 10 N 0
Ieri h: 22:35 sereno Sereno 18 18 100 1016 10 N 0
Ieri h: 22:15 sereno Sereno 18 18 100 1016 11 N 0
Ieri h: 21:55 sereno Sereno 18 18 100 1016 10 N 0
Ieri h: 21:35 sereno Sereno 19 19 100 1016 10 N 0